Location: Flotzheim
(48.8375°N, 10.8136°E)
Time: 04:15:42
(UTC+00:00)

Meteor 1-27 - Pass Details

Date: 23 January 2021
Orbit: 837 x 893 km, 81.3° (Epoch: 26 February)

Event Time Altitude Azimuth Distance (km) Brightness Sun altitude
Rises 18:19:08 0° 350° (N) 3,440 7.5 -22.6°
Reaches altitude 10° 18:21:37 10° 353° (N) 2,491 6.7 -23.0°
Maximum altitude 18:27:13 65° 75° (ENE) 929 4.1 -23.9°
Enters shadow 18:28:19 53° 126° (SE) 1,030 4.3 -24.1°
